Year,Month,Day,Hour,Minute,Value (Times are PST for temperature in C)
2010,11,23,08,53,-5.80
2010,11,23,08,54,-5.80
2010,11,23,08,55,-5.80
2010,11,23,08,56,-5.80
2010,11,23,08,57,-5.70
2010,11,23,08,58,-5.70
2010,11,23,08,59,-5.60
2010,11,23,09,00,-5.60
2010,11,23,09,01,-5.60
2010,11,23,09,02,-5.60
2010,11,23,09,03,-5.70
2010,11,23,09,04,-5.70
2010,11,23,09,05,-5.70
2010,11,23,09,06,-5.80
2010,11,23,09,07,-5.80
2010,11,23,09,08,-5.80
2010,11,23,09,09,-5.80
2010,11,23,09,10,-5.80
2010,11,23,09,11,-5.80
2010,11,23,09,12,-5.70
2010,11,23,09,13,-5.70
2010,11,23,09,14,-5.80
2010,11,23,09,15,-5.80
2010,11,23,09,16,-5.80
2010,11,23,09,17,-5.80
2010,11,23,09,18,-5.70
2010,11,23,09,19,-5.70
2010,11,23,09,20,-5.60
2010,11,23,09,21,-5.50
2010,11,23,09,22,-5.40
2010,11,23,09,23,-5.40
2010,11,23,09,24,-5.40
2010,11,23,09,25,-5.50
2010,11,23,09,26,-5.50
2010,11,23,09,27,-5.50
2010,11,23,09,28,-5.60
2010,11,23,09,29,-5.60
2010,11,23,09,30,-5.60
2010,11,23,09,31,-5.50
2010,11,23,09,32,-5.50
2010,11,23,09,33,-5.40
2010,11,23,09,34,-5.30
2010,11,23,09,35,-5.20
2010,11,23,09,36,-5.10
2010,11,23,09,37,-5.00
2010,11,23,09,38,-5.00
2010,11,23,09,39,-4.90
2010,11,23,09,40,-4.90
2010,11,23,09,41,-4.90
2010,11,23,09,42,-4.90
2010,11,23,09,43,-4.90
2010,11,23,09,44,-4.90
2010,11,23,09,45,-4.80
2010,11,23,09,46,-4.80
2010,11,23,09,47,-4.80
2010,11,23,09,48,-4.80
2010,11,23,09,49,-4.80
2010,11,23,09,50,-4.80
2010,11,23,09,51,-4.80
2010,11,23,09,52,-4.70
2010,11,23,09,53,-4.70
2010,11,23,09,54,-4.80
2010,11,23,09,55,-4.80
2010,11,23,09,56,-4.70
2010,11,23,09,57,-4.70
2010,11,23,09,58,-4.70
2010,11,23,09,59,-4.70
2010,11,23,10,00,-4.60
2010,11,23,10,01,-4.60
2010,11,23,10,02,-4.60
2010,11,23,10,03,-4.60
2010,11,23,10,04,-4.60
2010,11,23,10,05,-4.70
2010,11,23,10,06,-4.70
2010,11,23,10,07,-4.70
2010,11,23,10,08,-4.70
2010,11,23,10,09,-4.70
2010,11,23,10,10,-4.70
2010,11,23,10,11,-4.70
2010,11,23,10,12,-4.70
2010,11,23,10,13,-4.80
2010,11,23,10,14,-4.90
2010,11,23,10,15,-5.00
2010,11,23,10,16,-5.00
2010,11,23,10,17,-5.00
2010,11,23,10,18,-5.10
2010,11,23,10,19,-5.10
2010,11,23,10,20,-5.10
2010,11,23,10,21,-5.10
2010,11,23,10,22,-5.10
2010,11,23,10,23,-5.20
2010,11,23,10,24,-5.20
2010,11,23,10,25,-5.10
2010,11,23,10,26,-5.10
2010,11,23,10,27,-5.00
2010,11,23,10,28,-5.00
2010,11,23,10,29,-5.00
2010,11,23,10,30,-4.90
2010,11,23,10,31,-4.90
2010,11,23,10,32,-5.00
2010,11,23,10,33,-5.00
2010,11,23,10,34,-4.90
2010,11,23,10,35,-4.90
2010,11,23,10,36,-4.90
2010,11,23,10,37,-4.90
2010,11,23,10,38,-4.90
2010,11,23,10,39,-5.00
2010,11,23,10,40,-4.90
2010,11,23,10,41,-4.90
2010,11,23,10,42,-4.90
2010,11,23,10,43,-4.90
2010,11,23,10,44,-4.90
2010,11,23,10,45,-5.00
2010,11,23,10,46,-5.10
2010,11,23,10,47,-5.10
2010,11,23,10,48,-5.10
2010,11,23,10,49,-5.10
2010,11,23,10,50,-5.00
2010,11,23,10,51,-5.00
2010,11,23,10,52,-4.90
2010,11,23,10,53,-4.80
2010,11,23,10,54,-4.80
2010,11,23,10,55,-4.80
2010,11,23,10,56,-4.80
2010,11,23,10,57,-4.70
2010,11,23,10,58,-4.70
2010,11,23,10,59,-4.70
2010,11,23,11,00,-4.60
2010,11,23,11,01,-4.60
2010,11,23,11,02,-4.50
2010,11,23,11,03,-4.40
2010,11,23,11,04,-4.40
2010,11,23,11,05,-4.40
2010,11,23,11,06,-4.40
2010,11,23,11,07,-4.40
2010,11,23,11,08,-4.40
2010,11,23,11,09,-4.40
2010,11,23,11,10,-4.30
2010,11,23,11,11,-4.20
2010,11,23,11,12,-4.10
2010,11,23,11,13,-4.20
2010,11,23,11,14,-4.30
2010,11,23,11,15,-4.40
2010,11,23,11,16,-4.40
2010,11,23,11,17,-4.50
2010,11,23,11,18,-4.50
2010,11,23,11,19,-4.50
2010,11,23,11,20,-4.50
2010,11,23,11,21,-4.50
2010,11,23,11,22,-4.50
2010,11,23,11,23,-4.50
2010,11,23,11,24,-4.40
2010,11,23,11,25,-4.40
2010,11,23,11,26,-4.30
2010,11,23,11,27,-4.20
2010,11,23,11,28,-4.20
2010,11,23,11,29,-4.10
2010,11,23,11,30,-4.10
2010,11,23,11,31,-4.20
2010,11,23,11,32,-4.20
2010,11,23,11,33,-4.20
2010,11,23,11,34,-4.30
2010,11,23,11,35,-4.30
2010,11,23,11,36,-4.30
2010,11,23,11,37,-4.30
2010,11,23,11,38,-4.30
2010,11,23,11,39,-4.30
2010,11,23,11,40,-4.30
2010,11,23,11,41,-4.30
2010,11,23,11,42,-4.20
2010,11,23,11,43,-4.20
2010,11,23,11,44,-4.10
2010,11,23,11,45,-4.10
2010,11,23,11,46,-4.10
2010,11,23,11,47,-4.10
2010,11,23,11,48,-4.20
2010,11,23,11,49,-4.20
2010,11,23,11,50,-4.20
2010,11,23,11,51,-4.20
2010,11,23,11,52,-4.20
2010,11,23,11,53,-4.20
2010,11,23,11,54,-4.20
2010,11,23,11,55,-4.20
2010,11,23,11,56,-4.30
2010,11,23,11,57,-4.40
2010,11,23,11,58,-4.50
2010,11,23,11,59,-4.60
2010,11,23,12,00,-4.70
2010,11,23,12,01,-4.70
2010,11,23,12,02,-4.60
2010,11,23,12,03,-4.60
2010,11,23,12,04,-4.60
2010,11,23,12,05,-4.50
2010,11,23,12,06,-4.40
2010,11,23,12,07,-4.30
2010,11,23,12,08,-4.20
2010,11,23,12,09,-4.20
2010,11,23,12,10,-4.20
2010,11,23,12,11,-4.10
2010,11,23,12,12,-4.10
2010,11,23,12,13,-4.10
2010,11,23,12,14,-4.00
2010,11,23,12,15,-4.00
2010,11,23,12,16,-4.00
2010,11,23,12,17,-4.00
2010,11,23,12,18,-4.10
2010,11,23,12,19,-4.20
2010,11,23,12,20,-4.30
2010,11,23,12,21,-4.40
2010,11,23,12,22,-4.40
2010,11,23,12,23,-4.40
2010,11,23,12,24,-4.40
2010,11,23,12,25,-4.50
2010,11,23,12,26,-4.40
2010,11,23,12,27,-4.50
2010,11,23,12,28,-4.50
2010,11,23,12,29,-4.50
2010,11,23,12,30,-4.50
2010,11,23,12,31,-4.50
2010,11,23,12,32,-4.50
2010,11,23,12,33,-4.60
2010,11,23,12,34,-4.60
2010,11,23,12,35,-4.60
2010,11,23,12,36,-4.70
2010,11,23,12,37,-4.70
2010,11,23,12,38,-4.70
2010,11,23,12,39,-4.70
2010,11,23,12,40,-4.70
2010,11,23,12,41,-4.70
2010,11,23,12,42,-4.60
2010,11,23,12,43,-4.60
2010,11,23,12,44,-4.60
2010,11,23,12,45,-4.60
2010,11,23,12,46,-4.60
2010,11,23,12,47,-4.60
2010,11,23,12,48,-4.50
2010,11,23,12,49,-4.50
2010,11,23,12,50,-4.40
2010,11,23,12,51,-4.40
2010,11,23,12,52,-4.40
2010,11,23,12,53,-4.30
2010,11,23,12,54,-4.30
2010,11,23,12,55,-4.30
2010,11,23,12,56,-4.20
2010,11,23,12,57,-4.10
2010,11,23,12,58,-4.10
2010,11,23,12,59,-4.10
2010,11,23,13,00,-4.10
2010,11,23,13,01,-4.10
2010,11,23,13,02,-4.10
2010,11,23,13,03,-4.10
2010,11,23,13,04,-4.10
2010,11,23,13,05,-4.10
2010,11,23,13,06,-4.10
2010,11,23,13,07,-4.10
2010,11,23,13,08,-4.10
2010,11,23,13,09,-4.10
2010,11,23,13,10,-4.10
2010,11,23,13,11,-4.10
2010,11,23,13,12,-4.10
2010,11,23,13,13,-4.10
2010,11,23,13,14,-4.20
2010,11,23,13,15,-4.20
2010,11,23,13,16,-4.20
2010,11,23,13,17,-4.20
2010,11,23,13,18,-4.20
2010,11,23,13,19,-4.30
2010,11,23,13,20,-4.30
2010,11,23,13,21,-4.40
2010,11,23,13,22,-4.40
2010,11,23,13,23,-4.50
2010,11,23,13,24,-4.40
2010,11,23,13,25,-4.40
2010,11,23,13,26,-4.40
2010,11,23,13,27,-4.40
2010,11,23,13,28,-4.30
2010,11,23,13,29,-4.30
2010,11,23,13,30,-4.20
2010,11,23,13,31,-4.20
2010,11,23,13,32,-4.20
2010,11,23,13,33,-4.20
2010,11,23,13,34,-4.20
2010,11,23,13,35,-4.20
2010,11,23,13,36,-4.20
2010,11,23,13,37,-4.20
2010,11,23,13,38,-4.10
2010,11,23,13,39,-4.10
2010,11,23,13,40,-4.10
2010,11,23,13,41,-4.10
2010,11,23,13,42,-4.10
2010,11,23,13,43,-4.10
2010,11,23,13,44,-4.10
2010,11,23,13,45,-4.10
2010,11,23,13,46,-4.10
2010,11,23,13,47,-4.10
2010,11,23,13,48,-4.10
2010,11,23,13,49,-4.20
2010,11,23,13,50,-4.20
2010,11,23,13,51,-4.20
2010,11,23,13,52,-4.20
2010,11,23,13,53,-4.20
2010,11,23,13,54,-4.20
2010,11,23,13,55,-4.20
2010,11,23,13,56,-4.30
2010,11,23,13,57,-4.30
2010,11,23,13,58,-4.30
2010,11,23,13,59,-4.30
2010,11,23,14,00,-4.30
2010,11,23,14,01,-4.30
2010,11,23,14,02,-4.30
2010,11,23,14,03,-4.30
2010,11,23,14,04,-4.30
2010,11,23,14,05,-4.40
2010,11,23,14,06,-4.40
2010,11,23,14,07,-4.40
2010,11,23,14,08,-4.50
2010,11,23,14,09,-4.50
2010,11,23,14,10,-4.50
2010,11,23,14,11,-4.50
2010,11,23,14,12,-4.40
2010,11,23,14,13,-4.40
2010,11,23,14,14,-4.40
2010,11,23,14,15,-4.30
2010,11,23,14,16,-4.20
2010,11,23,14,17,-4.20
2010,11,23,14,18,-4.20
2010,11,23,14,19,-4.20
2010,11,23,14,20,-4.20
2010,11,23,14,21,-4.20
2010,11,23,14,22,-4.20
2010,11,23,14,23,-4.20
2010,11,23,14,24,-4.20
2010,11,23,14,25,-4.20
2010,11,23,14,26,-4.20
2010,11,23,14,27,-4.20
2010,11,23,14,28,-4.20
2010,11,23,14,29,-4.10
2010,11,23,14,30,-4.10
2010,11,23,14,31,-4.00
2010,11,23,14,32,-4.00
2010,11,23,14,33,-3.90
2010,11,23,14,34,-3.90
2010,11,23,14,35,-3.90
2010,11,23,14,36,-3.80
2010,11,23,14,37,-3.80
2010,11,23,14,38,-3.80
2010,11,23,14,39,-3.70
2010,11,23,14,40,-3.70
2010,11,23,14,41,-3.70
2010,11,23,14,42,-3.60
2010,11,23,14,43,-3.60
2010,11,23,14,44,-3.60
2010,11,23,14,45,-3.70
2010,11,23,14,46,-3.80
2010,11,23,14,47,-3.90
2010,11,23,14,48,-4.00
2010,11,23,14,49,-4.00
2010,11,23,14,50,-4.00
2010,11,23,14,51,-4.00
2010,11,23,14,52,-3.90
2010,11,23,14,53,-3.90
2010,11,23,14,54,-3.90
2010,11,23,14,55,-4.00
2010,11,23,14,56,-3.90
2010,11,23,14,57,-3.90
2010,11,23,14,58,-3.90
2010,11,23,14,59,-3.90
2010,11,23,15,00,-3.80
2010,11,23,15,01,-3.80
2010,11,23,15,02,-3.80
2010,11,23,15,03,-3.80
2010,11,23,15,04,-3.80
2010,11,23,15,05,-3.70
2010,11,23,15,06,-3.70
2010,11,23,15,07,-3.70
2010,11,23,15,08,-3.80
2010,11,23,15,09,-3.80
2010,11,23,15,10,-3.80
2010,11,23,15,11,-3.90
2010,11,23,15,12,-4.00
2010,11,23,15,13,-4.00
2010,11,23,15,14,-4.10
2010,11,23,15,15,-4.10
2010,11,23,15,16,-4.20
2010,11,23,15,17,-4.20
2010,11,23,15,18,-4.20
2010,11,23,15,19,-4.20
2010,11,23,15,20,-4.20
2010,11,23,15,21,-4.20
2010,11,23,15,22,-4.20
2010,11,23,15,23,-4.20
2010,11,23,15,24,-4.20
2010,11,23,15,25,-4.20
2010,11,23,15,26,-4.20
2010,11,23,15,27,-4.20
2010,11,23,15,28,-4.20
2010,11,23,15,29,-4.20
2010,11,23,15,30,-4.20
2010,11,23,15,31,-4.20
2010,11,23,15,32,-4.20
2010,11,23,15,33,-4.20
2010,11,23,15,34,-4.20
2010,11,23,15,35,-4.20
2010,11,23,15,36,-4.10
2010,11,23,15,37,-4.10
2010,11,23,15,38,-4.10
2010,11,23,15,39,-4.10
2010,11,23,15,40,-4.10
2010,11,23,15,41,-4.10
2010,11,23,15,42,-4.20
2010,11,23,15,43,-4.20
2010,11,23,15,44,-4.20
2010,11,23,15,45,-4.30
2010,11,23,15,46,-4.30
2010,11,23,15,47,-4.30
2010,11,23,15,48,-4.30
2010,11,23,15,49,-4.30
2010,11,23,15,50,-4.30
2010,11,23,15,51,-4.30
2010,11,23,15,52,-4.30
2010,11,23,15,53,-4.30
2010,11,23,15,54,-4.30
2010,11,23,15,55,-4.30
2010,11,23,15,56,-4.40
2010,11,23,15,57,-4.40
2010,11,23,15,58,-4.40
2010,11,23,15,59,-4.40
2010,11,23,16,00,-4.50
2010,11,23,16,01,-4.50
2010,11,23,16,02,-4.60
2010,11,23,16,03,-4.60
2010,11,23,16,04,-4.70
2010,11,23,16,05,-4.70
2010,11,23,16,06,-4.70
2010,11,23,16,07,-4.70
2010,11,23,16,08,-4.80
2010,11,23,16,09,-4.80
2010,11,23,16,10,-4.80
2010,11,23,16,11,-4.80
2010,11,23,16,12,-4.80
2010,11,23,16,13,-4.90
2010,11,23,16,14,-4.90
2010,11,23,16,15,-5.00
2010,11,23,16,16,-5.00
2010,11,23,16,17,-5.00
2010,11,23,16,18,-5.00
2010,11,23,16,19,-5.10
2010,11,23,16,20,-5.10
2010,11,23,16,21,-5.10
2010,11,23,16,22,-5.10
2010,11,23,16,23,-5.10
2010,11,23,16,24,-5.10
2010,11,23,16,25,-5.10
2010,11,23,16,26,-5.10
2010,11,23,16,27,-5.10
2010,11,23,16,28,-5.10
2010,11,23,16,29,-5.10
